FW8308 Weather Reports


time (UTC)temp
C
wind
direction
speed
KPH
gust
KPH
rain 1hr
cm
rain 24hr
cm
rain mn
cm
humidity
%
barometer
mb
20260507143232 26 44 0.0 1.6 0.00 0.00 0.00 23 1014.8
20260507142728 25 65 0.0 0.0 0.00 0.00 0.00 23 1014.6
20260507142225 25 48 0.0 1.6 0.00 0.00 0.00 24 1014.6
20260507141721 25 69 0.0 0.0 0.00 0.00 0.00 24 1014.6
20260507141219 25 15 0.0 1.6 0.00 0.00 0.00 25 1014.6
20260507140714 24 38 0.0 9.7 0.00 0.00 0.00 25 1014.7
20260507140212 24 35 0.0 3.2 0.00 0.00 0.00 26 1014.6
20260507135709 23 83 0.0 4.8 0.00 0.00 0.00 26 1014.8
20260507135206 23 49 0.0 3.2 0.00 0.00 0.00 27 1014.5
20260507134702 23 50 0.0 3.2 0.00 0.00 0.00 27 1014.6
20260507134159 23 40 0.0 3.2 0.00 0.00 0.00 28 1014.3
20260507133654 23 40 0.0 1.6 0.00 0.00 0.00 28 1014.4
20260507133152 22 52 0.0 1.6 0.00 0.00 0.00 29 1014.1
20260507132649 22 52 0.0 1.6 0.00 0.00 0.00 30 1014.1
20260507132145 22 51 0.0 0.0 0.00 0.00 0.00 31 1014.1
20260507131643 22 55 0.0 0.0 0.00 0.00 0.00 31 1014.1
20260507131140 21 57 0.0 0.0 0.00 0.00 0.00 31 1014.2
20260507130636 21 37 0.0 0.0 0.00 0.00 0.00 32 1014.1
20260507130134 21 355 0.0 0.0 0.00 0.00 0.00 31 1014.0
20260507125633 21 1 0.0 1.6 0.00 0.00 0.00 32 1014.2
20260507125130 21 13 0.0 1.6 0.00 0.00 0.00 32 1013.9
20260507124626 21 41 0.0 0.0 0.00 0.00 0.00 33 1014.1
20260507124124 21 31 0.0 0.0 0.00 0.00 0.00 32 1014.0
20260507123622 21 358 0.0 1.6 0.00 0.00 0.00 32 1013.9
20260507123119 21 12 0.0 0.0 0.00 0.00 0.00 32 1013.9
20260507122614 20 64 0.0 0.0 0.00 0.00 0.00 33 1013.9
20260507122110 20 23 0.0 0.0 0.00 0.00 0.00 33 1014.1
20260507121606 20 5 0.0 1.6 0.00 0.00 0.00 34 1013.9
20260507121102 20 59 0.0 0.0 0.00 0.00 0.00 34 1014.0
20260507120558 18 61 0.0 0.0 0.00 0.00 0.00 35 1014.0
20260507120055 18 85 0.0 0.0 0.00 0.00 0.00 36 1014.2
20260507115551 18 84 0.0 0.0 0.00 0.00 0.00 36 1014.2
20260507115047 18 95 0.0 0.0 0.00 0.00 0.00 36 1014.2
20260507114543 19 85 0.0 0.0 0.00 0.00 0.00 34 1014.3
20260507114041 19 54 0.0 0.0 0.00 0.00 0.00 34 1014.3
20260507113538 20 64 0.0 0.0 0.00 0.00 0.00 34 1014.1
20260507113035 20 27 0.0 0.0 0.00 0.00 0.00 33 1014.2
20260507112533 20 48 0.0 0.0 0.00 0.00 0.00 33 1014.4
20260507112029 20 15 0.0 1.6 0.00 0.00 0.00 33 1014.3
20260507111526 18 39 0.0 0.0 0.00 0.00 0.00 35 1014.4
20260507111023 19 24 0.0 0.0 0.00 0.00 0.00 36 1014.5
20260507110519 18 27 0.0 0.0 0.00 0.00 0.00 36 1014.4
20260507110016 17 70 0.0 0.0 0.00 0.00 0.00 39 1014.6
20260507105513 17 81 0.0 0.0 0.00 0.00 0.00 40 1014.5
20260507105009 16 89 0.0 0.0 0.00 0.00 0.00 39 1014.5
20260507104507 17 89 0.0 0.0 0.00 0.00 0.00 39 1014.6
20260507104003 17 98 0.0 0.0 0.00 0.00 0.00 39 1014.6
20260507103459 17 106 0.0 0.0 0.00 0.00 0.00 39 1014.5
20260507102955 17 88 0.0 0.0 0.00 0.00 0.00 39 1014.7
20260507102452 17 92 0.0 0.0 0.00 0.00 0.00 39 1014.7
20260507101948 18 73 0.0 0.0 0.00 0.00 0.00 39 1014.6
20260507101443 17 84 0.0 0.0 0.00 0.00 0.00 39 1014.8
20260507100940 17 86 0.0 0.0 0.00 0.00 0.00 40 1014.9
20260507100438 17 91 0.0 0.0 0.00 0.00 0.00 40 1014.8
20260507095936 17 93 0.0 0.0 0.00 0.00 0.00 39 1014.8
20260507095433 18 93 0.0 0.0 0.00 0.00 0.00 39 1015.0
20260507094930 18 96 0.0 0.0 0.00 0.00 0.00 37 1014.9
20260507094426 19 102 0.0 0.0 0.00 0.00 0.00 36 1014.8
20260507093923 19 84 0.0 0.0 0.00 0.00 0.00 36 1014.7
20260507093421 19 64 0.0 0.0 0.00 0.00 0.00 36 1014.7
20260507092919 19 40 0.0 0.0 0.00 0.00 0.00 38 1014.7
20260507092415 19 42 0.0 0.0 0.00 0.00 0.00 36 1014.5
20260507091912 19 45 0.0 0.0 0.00 0.00 0.00 36 1014.8
20260507091408 19 55 0.0 0.0 0.00 0.00 0.00 38 1014.8
20260507090904 18 48 0.0 0.0 0.00 0.00 0.00 44 1014.7
20260507090400 19 35 0.0 0.0 0.00 0.00 0.00 43 1014.8
20260507085858 19 62 0.0 0.0 0.00 0.00 0.00 41 1014.7
20260507085354 19 54 0.0 0.0 0.00 0.00 0.00 37 1014.6
20260507084852 19 67 0.0 0.0 0.00 0.00 0.00 37 1014.9
20260507084348 19 70 0.0 0.0 0.00 0.00 0.00 37 1015.0
20260507083845 19 67 0.0 0.0 0.00 0.00 0.00 37 1014.8
20260507083342 19 67 0.0 0.0 0.00 0.00 0.00 38 1014.9
20260507082838 19 74 0.0 0.0 0.00 0.00 0.00 40 1014.8
20260507082333 18 49 0.0 0.0 0.00 0.00 0.00 42 1014.9
20260507081831 18 80 0.0 0.0 0.00 0.00 0.00 43 1015.0
20260507081327 18 72 0.0 0.0 0.00 0.00 0.00 45 1014.9
20260507080824 18 69 0.0 0.0 0.00 0.00 0.00 43 1014.9
20260507080320 18 41 0.0 0.0 0.00 0.00 0.00 43 1014.9
20260507075815 19 52 0.0 0.0 0.00 0.00 0.00 45 1015.1
20260507075312 20 66 0.0 0.0 0.00 0.00 0.00 40 1014.9
20260507074809 20 68 0.0 0.0 0.00 0.00 0.00 40 1015.0
20260507074306 20 70 0.0 0.0 0.00 0.00 0.00 38 1015.2
20260507073803 19 78 0.0 0.0 0.00 0.00 0.00 38 1015.0
20260507073300 19 85 0.0 0.0 0.00 0.00 0.00 38 1015.1
20260507072757 19 79 0.0 0.0 0.00 0.00 0.00 39 1015.0
20260507072254 19 82 0.0 0.0 0.00 0.00 0.00 42 1015.0
20260507071752 20 80 0.0 0.0 0.00 0.00 0.00 45 1015.2
20260507071248 20 67 0.0 0.0 0.00 0.00 0.00 43 1014.9
20260507070745 20 73 0.0 0.0 0.00 0.00 0.00 42 1014.8
20260507070242 20 73 0.0 0.0 0.00 0.00 0.00 44 1015.1
20260507065738 20 82 0.0 0.0 0.00 0.00 0.00 39 1015.0
20260507065235 20 82 0.0 0.0 0.00 0.00 0.00 39 1014.9
20260507064733 20 79 0.0 0.0 0.00 0.00 0.00 40 1015.0
20260507064232 21 80 0.0 0.0 0.00 0.00 0.00 41 1015.0
20260507063728 21 88 0.0 0.0 0.00 0.00 0.00 32 1014.8
20260507063225 21 89 0.0 0.0 0.00 0.00 0.00 31 1014.8
20260507062722 21 89 0.0 0.0 0.00 0.00 0.00 31 1015.0
20260507062220 21 92 0.0 0.0 0.00 0.00 0.00 31 1015.2
20260507061717 21 97 0.0 0.0 0.00 0.00 0.00 31 1015.0
20260507061215 22 95 0.0 0.0 0.00 0.00 0.00 31 1014.8
20260507060713 22 100 0.0 0.0 0.00 0.00 0.00 31 1014.9
20260507060209 22 107 0.0 0.0 0.00 0.00 0.00 30 1014.8
20260507055705 22 107 0.0 0.0 0.00 0.00 0.00 31 1015.0
20260507055201 22 128 0.0 0.0 0.00 0.00 0.00 30 1015.0
20260507054657 22 108 0.0 0.0 0.00 0.00 0.00 31 1014.7
20260507054154 22 136 0.0 0.0 0.00 0.00 0.00 31 1014.8
20260507053652 22 116 0.0 0.0 0.00 0.00 0.00 31 1015.0
20260507053150 22 134 0.0 0.0 0.00 0.00 0.00 31 1015.2
20260507052648 22 113 0.0 0.0 0.00 0.00 0.00 31 1015.1
20260507052144 22 96 0.0 0.0 0.00 0.00 0.00 31 1015.1
20260507051642 22 104 0.0 0.0 0.00 0.00 0.00 31 1014.9
20260507051138 22 110 0.0 0.0 0.00 0.00 0.00 30 1015.1
20260507050635 23 107 0.0 0.0 0.00 0.00 0.00 30 1014.9
20260507050132 23 114 0.0 0.0 0.00 0.00 0.00 29 1014.8
20260507045629 23 109 0.0 0.0 0.00 0.00 0.00 29 1014.9
20260507045126 23 147 0.0 0.0 0.00 0.00 0.00 29 1014.6
20260507044622 23 104 0.0 0.0 0.00 0.00 0.00 30 1014.8
20260507044119 23 108 0.0 0.0 0.00 0.00 0.00 29 1014.5
20260507043615 23 117 0.0 0.0 0.00 0.00 0.00 30 1014.8
20260507043113 23 107 0.0 0.0 0.00 0.00 0.00 30 1014.4
20260507042608 23 109 0.0 0.0 0.00 0.00 0.00 29 1014.5
20260507042104 23 110 0.0 0.0 0.00 0.00 0.00 29 1014.6
20260507041601 23 111 0.0 0.0 0.00 0.00 0.00 29 1014.4
20260507041058 23 110 0.0 0.0 0.00 0.00 0.00 29 1014.6
20260507040554 23 124 0.0 0.0 0.00 0.00 0.00 29 1014.3
20260507040051 23 110 0.0 0.0 0.00 0.00 0.00 29 1014.3
20260507035547 23 105 0.0 0.0 0.00 0.00 0.00 29 1014.3
20260507035043 24 105 0.0 0.0 0.00 0.00 0.00 29 1014.1
20260507034540 24 112 0.0 0.0 0.00 0.00 0.00 28 1013.9
20260507034038 25 129 0.0 0.0 0.00 0.00 0.00 28 1014.1
20260507033536 25 112 0.0 0.0 0.00 0.00 0.00 28 1013.9
20260507033033 25 138 0.0 0.0 0.00 0.00 0.00 27 1013.8
20260507032530 25 216 0.0 0.0 0.00 0.00 0.00 27 1013.9
20260507032026 25 145 0.0 0.0 0.00 0.00 0.00 27 1013.9
20260507031522 25 146 0.0 0.0 0.00 0.00 0.00 26 1013.9
20260507031020 25 187 0.0 0.0 0.00 0.00 0.00 26 1013.8
20260507030516 26 168 0.0 0.0 0.00 0.00 0.00 26 1013.5
20260507030014 26 165 0.0 0.0 0.00 0.00 0.00 26 1013.6
20260507025511 26 179 0.0 0.0 0.00 0.00 0.00 26 1013.5
20260507025008 26 194 0.0 0.0 0.00 0.00 0.00 26 1013.5
20260507024506 26 202 0.0 0.0 0.00 0.00 0.00 26 1013.2
20260507024002 26 189 0.0 0.0 0.00 0.00 0.00 26 1013.3
20260507023458 26 234 0.0 1.6 0.00 0.00 0.00 26 1013.2
20260507022955 26 181 0.0 0.0 0.00 0.00 0.00 26 1013.2
20260507022453 26 144 0.0 0.0 0.00 0.00 0.00 25 1013.1
20260507021948 26 191 0.0 0.0 0.00 0.00 0.00 25 1013.2
20260507021444 26 189 0.0 3.2 0.00 0.00 0.00 25 1013.1
20260507020941 26 210 0.0 0.0 0.00 0.00 0.00 25 1013.0
20260507020438 27 250 0.0 0.0 0.00 0.00 0.00 25 1013.0
20260507015935 27 222 1.6 1.6 0.00 0.00 0.00 25 1013.2
20260507015433 27 156 0.0 1.6 0.00 0.00 0.00 25 1013.1
20260507014930 27 208 0.0 3.2 0.00 0.00 0.00 25 1013.2
20260507014427 27 220 0.0 1.6 0.00 0.00 0.00 24 1013.2
20260507013923 27 213 0.0 3.2 0.00 0.00 0.00 24 1013.0
20260507013420 27 210 0.0 3.2 0.00 0.00 0.00 24 1013.0
20260507012918 27 197 0.0 3.2 0.00 0.00 0.00 24 1013.1
20260507012414 27 221 1.6 3.2 0.00 0.00 0.00 24 1012.9
20260507011911 27 250 0.0 3.2 0.00 0.00 0.00 24 1013.0
20260507011408 27 226 0.0 1.6 0.00 0.00 0.00 24 1013.0
20260507010907 27 220 1.6 4.8 0.00 0.00 0.00 24 1013.0
20260507010403 28 202 0.0 1.6 0.00 0.00 0.00 24 1013.0
20260507005901 28 199 0.0 1.6 0.00 0.00 0.00 24 1013.2
20260507005357 28 216 0.0 4.8 0.00 0.00 0.00 24 1012.9
20260507004854 28 228 0.0 3.2 0.00 0.00 0.00 24 1013.0
20260507004351 28 86 0.0 1.6 0.00 0.00 0.00 24 1012.9
20260507003850 28 212 0.0 0.0 0.00 0.00 0.00 24 1012.9
20260507003344 28 231 3.2 4.8 0.00 0.00 0.00 24 1012.8
20260507002839 28 196 0.0 3.2 0.00 0.00 0.00 24 1012.8
20260507002335 28 235 0.0 1.6 0.00 0.00 0.00 24 1013.0
20260507001833 28 240 1.6 3.2 0.00 0.00 0.00 23 1013.0
20260507001329 28 232 1.6 3.2 0.00 0.00 0.00 24 1012.8
20260507000825 28 196 0.0 3.2 0.00 0.00 0.00 23 1012.9
20260507000321 28 217 0.0 3.2 0.00 0.00 0.00 24 1012.8
20260506235818 28 299 0.0 1.6 0.00 0.00 0.00 24 1012.5
20260506235314 28 174 1.6 3.2 0.00 0.00 0.00 24 1012.8
20260506234811 28 134 0.0 0.0 0.00 0.00 0.00 24 1012.8
20260506234309 28 208 0.0 1.6 0.00 0.00 0.00 24 1012.9
20260506233806 28 180 0.0 0.0 0.00 0.00 0.00 23 1013.3
20260506233302 28 131 0.0 0.0 0.00 0.00 0.00 24 1013.3
20260506232759 28 151 0.0 0.0 0.00 0.00 0.00 24 1013.1
20260506232254 28 359 0.0 0.0 0.00 0.00 0.00 24 1013.1
20260506231751 28 234 0.0 3.2 0.00 0.00 0.00 24 1013.4
20260506231249 28 288 0.0 3.2 0.00 0.00 0.00 24 1013.5
20260506230746 28 254 1.6 3.2 0.00 0.00 0.00 24 1013.4
20260506230243 28 167 1.6 3.2 0.00 0.00 0.00 24 1013.4
20260506225739 28 185 0.0 4.8 0.00 0.00 0.00 24 1013.3
20260506225236 28 196 0.0 3.2 0.00 0.00 0.00 24 1013.5
20260506224733 28 159 0.0 1.6 0.00 0.00 0.00 24 1013.5
20260506224230 28 103 0.0 1.6 0.00 0.00 0.00 24 1013.3
20260506223726 28 176 0.0 4.8 0.00 0.00 0.00 24 1013.7
20260506223222 28 215 0.0 0.0 0.00 0.00 0.00 24 1013.7
20260506222719 27 125 0.0 0.0 0.00 0.00 0.00 25 1013.6
20260506222214 28 339 0.0 1.6 0.00 0.00 0.00 25 1013.7
20260506221713 28 243 1.6 3.2 0.00 0.00 0.00 24 1013.6
20260506221211 28 131 0.0 0.0 0.00 0.00 0.00 24 1013.9
20260506220708 28 183 1.6 4.8 0.00 0.00 0.00 24 1013.8
20260506220202 27 232 0.0 1.6 0.00 0.00 0.00 25 1014.2
20260506215659 28 323 0.0 3.2 0.00 0.00 0.00 25 1014.0
20260506215154 28 142 0.0 0.0 0.00 0.00 0.00 24 1014.1
20260506214652 27 88 0.0 1.6 0.00 0.00 0.00 25 1014.3
20260506214149 27 238 3.2 8.0 0.00 0.00 0.00 25 1014.3
20260506213647 28 201 1.6 3.2 0.00 0.00 0.00 25 1014.2
20260506213144 28 268 0.0 0.0 0.00 0.00 0.00 24 1014.6
20260506212642 27 199 0.0 0.0 0.00 0.00 0.00 25 1014.4
20260506212136 27 196 1.6 8.0 0.00 0.00 0.00 25 1014.6
20260506211632 27 169 3.2 8.0 0.00 0.00 0.00 25 1014.7
20260506211129 27 226 1.6 3.2 0.00 0.00 0.00 25 1014.8
20260506210626 27 208 0.0 1.6 0.00 0.00 0.00 25 1014.9
20260506210122 27 320 4.8 4.8 0.00 0.00 0.00 25 1014.7
20260506205619 27 111 0.0 1.6 0.00 0.00 0.00 25 1014.9
20260506205114 27 101 0.0 1.6 0.00 0.00 0.00 25 1015.0
20260506204612 27 112 0.0 0.0 0.00 0.00 0.00 25 1015.2
20260506204109 27 110 0.0 1.6 0.00 0.00 0.00 25 1015.2
20260506203608 26 95 0.0 0.0 0.00 0.00 0.00 25 1015.3
20260506203104 27 175 0.0 3.2 0.00 0.00 0.00 25 1015.5
20260506202602 27 187 0.0 1.6 0.00 0.00 0.00 24 1015.2
20260506202057 27 153 1.6 4.8 0.00 0.00 0.00 25 1015.3
20260506201555 27 166 0.0 4.8 0.00 0.00 0.00 25 1015.6
20260506201052 26 236 0.0 0.0 0.00 0.00 0.00 26 1015.7
20260506200548 26 174 0.0 1.6 0.00 0.00 0.00 26 1015.6
20260506200045 26 200 0.0 0.0 0.00 0.00 0.00 26 1015.8
20260506195541 26 124 0.0 0.0 0.00 0.00 0.00 25 1015.9
20260506195038 27 163 0.0 0.0 0.00 0.00 0.00 25 1016.0
20260506194536 27 178 0.0 1.6 0.00 0.00 0.00 25 1015.7
20260506194032 26 151 0.0 1.6 0.00 0.00 0.00 25 1015.9
20260506193529 26 79 0.0 1.6 0.00 0.00 0.00 26 1015.9
20260506193026 26 125 0.0 0.0 0.00 0.00 0.00 26 1016.0
20260506192523 26 103 1.6 3.2 0.00 0.00 0.00 26 1016.0
20260506192019 26 177 1.6 3.2 0.00 0.00 0.00 26 1016.0
20260506191516 26 165 1.6 4.8 0.00 0.00 0.00 26 1016.1
20260506191012 26 144 0.0 0.0 0.00 0.00 0.00 26 1016.1
20260506190509 26 211 0.0 1.6 0.00 0.00 0.00 27 1016.2
20260506190006 25 185 0.0 3.2 0.00 0.00 0.00 27 1016.3
20260506185504 26 231 1.6 8.0 0.00 0.00 0.00 27 1016.3
20260506185000 26 171 0.0 0.0 0.00 0.00 0.00 27 1016.3
20260506184457 26 153 0.0 1.6 0.00 0.00 0.00 26 1016.5
20260506183954 25 110 0.0 1.6 0.00 0.00 0.00 28 1016.7
20260506183450 25 132 0.0 3.2 0.00 0.00 0.00 28 1016.6
20260506182947 25 256 0.0 1.6 0.00 0.00 0.00 28 1016.7
20260506182444 25 222 1.6 3.2 0.00 0.00 0.00 28 1016.7
20260506181941 25 357 0.0 0.0 0.00 0.00 0.00 28 1016.8
20260506181439 25 215 0.0 0.0 0.00 0.00 0.00 28 1016.6
20260506180936 25 220 0.0 1.6 0.00 0.00 0.00 29 1016.7
20260506180432 24 259 0.0 1.6 0.00 0.00 0.00 30 1016.9
20260506175929 25 212 3.2 4.8 0.00 0.00 0.00 30 1017.0
20260506175426 24 161 0.0 0.0 0.00 0.00 0.00 30 1017.0
20260506174922 25 173 0.0 1.6 0.00 0.00 0.00 31 1017.1
20260506174420 24 196 0.0 1.6 0.00 0.00 0.00 31 1017.0
20260506173917 23 148 0.0 3.2 0.00 0.00 0.00 31 1017.2
20260506173414 23 267 0.0 8.0 0.00 0.00 0.00 31 1017.0
20260506172911 23 56 0.0 0.0 0.00 0.00 0.00 31 1016.8
20260506172408 23 50 0.0 0.0 0.00 0.00 0.00 31 1017.1
20260506171905 23 346 0.0 1.6 0.00 0.00 0.00 32 1017.0
20260506171402 23 256 0.0 0.0 0.00 0.00 0.00 31 1016.9
20260506170900 25 279 0.0 0.0 0.00 0.00 0.00 31 1017.0
20260506170356 23 81 0.0 0.0 0.00 0.00 0.00 32 1017.0
20260506165855 22 223 0.0 1.6 0.00 0.00 0.00 33 1017.3
20260506165353 22 259 0.0 1.6 0.00 0.00 0.00 33 1017.0
20260506164849 23 137 0.0 0.0 0.00 0.00 0.00 33 1017.0
20260506164345 22 76 0.0 0.0 0.00 0.00 0.00 33 1016.9
20260506163844 22 256 0.0 0.0 0.00 0.00 0.00 34 1017.0
20260506163337 22 148 0.0 0.0 0.00 0.00 0.00 33 1017.1
20260506162833 22 359 0.0 0.0 0.00 0.00 0.00 34 1017.0
20260506162331 22 191 0.0 1.6 0.00 0.00 0.00 34 1016.7
20260506161823 22 242 0.0 0.0 0.00 0.00 0.00 34 1016.9
20260506161319 22 307 0.0 0.0 0.00 0.00 0.00 34 1016.9
20260506160817 22 61 0.0 0.0 0.00 0.00 0.00 34 1016.7
20260506160314 21 133 0.0 0.0 0.00 0.00 0.00 35 1016.6
20260506155812 21 212 0.0 0.0 0.00 0.00 0.00 35 1016.6
20260506155308 22 148 0.0 0.0 0.00 0.00 0.00 35 1016.9
20260506153421 21 68 0.0 0.0 0.00 0.00 0.00 36 1017.0
20260506152919 20 75 0.0 0.0 0.00 0.00 0.00 37 1017.0
20260506152415 21 83 0.0 0.0 0.00 0.00 0.00 35 1016.9
20260506151914 20 90 0.0 0.0 0.00 0.00 0.00 36 1016.9
20260506151411 20 79 0.0 0.0 0.00 0.00 0.00 37 1016.8
20260506150908 20 82 0.0 0.0 0.00 0.00 0.00 38 1016.7
20260506150404 20 49 0.0 0.0 0.00 0.00 0.00 38 1017.0
20260506145901 18 82 0.0 0.0 0.00 0.00 0.00 39 1016.9
20260506145357 19 73 0.0 0.0 0.00 0.00 0.00 39 1016.9
20260506144855 18 69 0.0 0.0 0.00 0.00 0.00 40 1016.7
20260506144351 18 358 0.0 0.0 0.00 0.00 0.00 41 1017.0
20260506143850 18 346 0.0 0.0 0.00 0.00 0.00 40 1016.8